| time (UTC) | temp F | wind direction | speed MPH | gust MPH | rain 1hr in | rain 24hr in | rain mn in | humidity % | barometer mb |
| 20260507105109 | 36 | 319 | 0.0 | 0.0 | 0.00 | 0.11 | 0.00 | 95 | 1011.8 |
| 20260507104548 | 35 | 319 | 0.0 | 0.0 | 0.00 | 0.11 | 0.00 | 95 | 1011.7 |
| 20260507104029 | 35 | 321 | 0.0 | 0.0 | 0.00 | 0.11 | 0.00 | 95 | 1011.7 |
| 20260507103500 | 35 | 321 | 0.0 | 0.0 | 0.00 | 0.11 | 0.00 | 95 | 1011.5 |
| 20260507103053 | 35 | 321 | 0.0 | 0.0 | 0.00 | 0.11 | 0.00 | 94 | 1011.5 |
| 20260507102534 | 35 | 321 | 0.0 | 1.0 | 0.00 | 0.11 | 0.00 | 94 | 1011.4 |
| 20260507102007 | 35 | 320 | 0.0 | 1.0 | 0.00 | 0.11 | 0.00 | 94 | 1011.4 |
| 20260507101558 | 35 | 319 | 0.0 | 0.0 | 0.00 | 0.11 | 0.00 | 95 | 1011.6 |
| 20260507101038 | 35 | 319 | 0.0 | 0.0 | 0.00 | 0.11 | 0.00 | 94 | 1011.8 |
| 20260507100521 | 35 | 319 | 0.0 | 2.0 | 0.00 | 0.19 | 0.00 | 95 | 1011.3 |
| 20260507100100 | 35 | 318 | 0.0 | 0.0 | 0.00 | 0.19 | 0.00 | 94 | 1011.3 |
| 20260507095539 | 35 | 319 | 0.0 | 0.0 | 0.00 | 0.19 | 0.00 | 94 | 1011.3 |
| 20260507095011 | 35 | 319 | 0.0 | 0.0 | 0.00 | 0.19 | 0.00 | 94 | 1011.2 |
| 20260507094605 | 34 | 319 | 0.0 | 0.0 | 0.00 | 0.19 | 0.00 | 94 | 1011.3 |
| 20260507094044 | 34 | 318 | 0.0 | 0.0 | 0.00 | 0.19 | 0.00 | 94 | 1011.6 |
| 20260507093524 | 34 | 360 | 0.0 | 0.0 | 0.00 | 0.19 | 0.00 | 94 | 1011.6 |
| 20260507093116 | 34 | 360 | 0.0 | 0.0 | 0.00 | 0.19 | 0.00 | 94 | 1011.6 |
| 20260507092553 | 34 | 318 | 0.0 | 1.0 | 0.00 | 0.19 | 0.00 | 94 | 1011.6 |
| 20260507092030 | 35 | 360 | 0.0 | 1.0 | 0.00 | 0.19 | 0.00 | 94 | 1011.6 |
| 20260507091503 | 35 | 360 | 0.0 | 1.0 | 0.00 | 0.19 | 0.00 | 93 | 1011.7 |
| 20260507091058 | 35 | 318 | 0.0 | 0.0 | 0.00 | 0.19 | 0.00 | 94 | 1011.6 |
| 20260507090534 | 35 | 321 | 0.0 | 1.0 | 0.00 | 0.25 | 0.00 | 94 | 1011.6 |
| 20260507090021 | 35 | 321 | 0.0 | 1.0 | 0.00 | 0.25 | 0.00 | 94 | 1011.6 |
| 20260507085602 | 35 | 321 | 0.0 | 2.0 | 0.00 | 0.25 | 0.00 | 93 | 1011.5 |
| 20260507085040 | 35 | 321 | 0.0 | 2.0 | 0.00 | 0.25 | 0.00 | 93 | 1011.4 |
| 20260507084516 | 35 | 321 | 0.0 | 1.0 | 0.00 | 0.25 | 0.00 | 93 | 1011.4 |
| 20260507084104 | 35 | 321 | 0.0 | 0.0 | 0.00 | 0.25 | 0.00 | 93 | 1011.2 |
| 20260507083544 | 36 | 321 | 0.0 | 0.0 | 0.00 | 0.25 | 0.00 | 93 | 1011.3 |
| 20260507083024 | 36 | 321 | 0.0 | 0.0 | 0.00 | 0.25 | 0.00 | 93 | 1011.9 |
| 20260507082608 | 36 | 321 | 0.0 | 1.0 | 0.00 | 0.25 | 0.00 | 93 | 1011.4 |
| 20260507082048 | 36 | 321 | 0.0 | 1.0 | 0.00 | 0.25 | 0.00 | 93 | 1011.4 |
| 20260507081530 | 36 | 321 | 0.0 | 0.0 | 0.00 | 0.25 | 0.00 | 93 | 1011.4 |
| 20260507081113 | 36 | 321 | 0.0 | 0.0 | 0.00 | 0.25 | 0.00 | 93 | 1011.3 |
| 20260507080552 | 36 | 321 | 0.0 | 1.0 | 0.00 | 0.30 | 0.00 | 92 | 1011.4 |
| 20260507080039 | 37 | 321 | 0.0 | 1.0 | 0.00 | 0.30 | 0.00 | 92 | 1011.4 |
| 20260507075515 | 37 | 321 | 0.0 | 0.0 | 0.00 | 0.30 | 0.00 | 92 | 1011.4 |
| 20260507075058 | 37 | 321 | 0.0 | 0.0 | 0.00 | 0.30 | 0.00 | 92 | 1011.4 |
| 20260507074539 | 37 | 321 | 0.0 | 0.0 | 0.00 | 0.30 | 0.00 | 92 | 1011.4 |
| 20260507074012 | 38 | 321 | 0.0 | 0.0 | 0.00 | 0.30 | 0.00 | 92 | 1011.5 |
| 20260507073603 | 38 | 321 | 0.0 | 0.0 | 0.00 | 0.30 | 0.00 | 92 | 1011.5 |
| 20260507073042 | 38 | 321 | 0.0 | 0.0 | 0.00 | 0.30 | 0.00 | 92 | 1011.5 |
| 20260507072522 | 38 | 320 | 0.0 | 0.0 | 0.00 | 0.30 | 0.00 | 91 | 1011.5 |
| 20260507072104 | 38 | 321 | 0.0 | 0.0 | 0.00 | 0.30 | 0.00 | 91 | 1011.7 |
| 20260507071601 | 39 | 321 | 0.0 | 0.0 | 0.00 | 0.30 | 0.00 | 91 | 1011.7 |
| 20260507071024 | 39 | 319 | 0.0 | 0.0 | 0.00 | 0.30 | 0.00 | 91 | 1011.8 |
| 20260507070606 | 39 | 319 | 0.0 | 0.0 | 0.00 | 0.30 | 0.00 | 91 | 1011.9 |
| 20260507070047 | 40 | 360 | 0.0 | 0.0 | 0.00 | 0.45 | 0.00 | 91 | 1011.8 |
| 20260507065530 | 40 | 360 | 0.0 | 0.0 | 0.00 | 0.45 | 0.00 | 90 | 1011.8 |
| 20260507065109 | 40 | 360 | 0.0 | 0.0 | 0.00 | 0.45 | 0.00 | 91 | 1011.6 |
| 20260507064550 | 40 | 360 | 0.0 | 0.0 | 0.00 | 0.45 | 0.00 | 90 | 1011.8 |
| 20260507064031 | 40 | 360 | 0.0 | 0.0 | 0.00 | 0.45 | 0.00 | 90 | 1011.7 |
| 20260507063613 | 41 | 360 | 0.0 | 0.0 | 0.00 | 0.45 | 0.00 | 90 | 1011.6 |
| 20260507063055 | 41 | 360 | 0.0 | 0.0 | 0.00 | 0.45 | 0.00 | 90 | 1011.5 |
| 20260507062533 | 41 | 360 | 0.0 | 0.0 | 0.00 | 0.45 | 0.00 | 90 | 1011.6 |
| 20260507062004 | 41 | 321 | 0.0 | 0.0 | 0.00 | 0.45 | 0.00 | 90 | 1011.7 |
| 20260507061558 | 41 | 360 | 0.0 | 0.0 | 0.00 | 0.45 | 0.00 | 90 | 1011.7 |
| 20260507061036 | 41 | 321 | 0.0 | 0.0 | 0.00 | 0.45 | 0.00 | 90 | 1011.7 |
| 20260507060513 | 41 | 317 | 0.0 | 0.0 | 0.00 | 0.56 | 0.00 | 89 | 1011.7 |
| 20260507060058 | 41 | 317 | 0.0 | 0.0 | 0.00 | 0.56 | 0.00 | 89 | 1011.8 |
| 20260507055535 | 42 | 360 | 0.0 | 0.0 | 0.00 | 0.56 | 0.00 | 89 | 1011.7 |
| 20260507055007 | 42 | 360 | 0.0 | 0.0 | 0.00 | 0.56 | 0.00 | 89 | 1012.0 |
| 20260507054559 | 42 | 360 | 0.0 | 0.0 | 0.00 | 0.56 | 0.00 | 89 | 1012.2 |
| 20260507054038 | 42 | 360 | 0.0 | 0.0 | 0.00 | 0.56 | 0.00 | 89 | 1012.2 |
| 20260507053506 | 42 | 360 | 0.0 | 1.0 | 0.00 | 0.56 | 0.00 | 89 | 1012.2 |
| 20260507053127 | 42 | 360 | 0.0 | 1.0 | 0.00 | 0.56 | 0.00 | 88 | 1012.2 |
| 20260507052538 | 42 | 360 | 0.0 | 0.0 | 0.00 | 0.56 | 0.00 | 88 | 1012.3 |
| 20260507052020 | 42 | 360 | 0.0 | 0.0 | 0.00 | 0.56 | 0.00 | 88 | 1012.4 |
| 20260507051607 | 42 | 360 | 0.0 | 0.0 | 0.00 | 0.56 | 0.00 | 88 | 1012.3 |
| 20260507051043 | 42 | 360 | 0.0 | 0.0 | 0.00 | 0.56 | 0.00 | 87 | 1012.4 |
| 20260507050513 | 42 | 360 | 0.0 | 2.0 | 0.00 | 0.62 | 0.00 | 87 | 1012.2 |
| 20260507050113 | 42 | 360 | 0.0 | 2.0 | 0.00 | 0.62 | 0.00 | 87 | 1012.4 |
| 20260507045548 | 42 | 360 | 0.0 | 2.0 | 0.00 | 0.62 | 0.00 | 86 | 1012.5 |
| 20260507045026 | 42 | 360 | 0.0 | 2.0 | 0.00 | 0.62 | 0.00 | 86 | 1012.5 |
| 20260507044608 | 42 | 360 | 0.0 | 2.0 | 0.00 | 0.62 | 0.00 | 87 | 1012.5 |
| 20260507044051 | 42 | 360 | 0.0 | 3.0 | 0.00 | 0.62 | 0.00 | 87 | 1012.4 |
| 20260507043530 | 42 | 360 | 0.0 | 3.0 | 0.00 | 0.62 | 0.00 | 88 | 1012.4 |
| 20260507043111 | 42 | 360 | 0.0 | 0.0 | 0.00 | 0.62 | 0.00 | 88 | 1012.4 |
| 20260507042552 | 42 | 360 | 0.0 | 1.0 | 0.00 | 0.62 | 0.00 | 88 | 1012.4 |
| 20260507042034 | 42 | 360 | 0.0 | 2.0 | 0.00 | 0.62 | 0.00 | 88 | 1012.3 |
| 20260507041505 | 42 | 360 | 0.0 | 2.0 | 0.00 | 0.62 | 0.00 | 88 | 1012.2 |
| 20260507041101 | 42 | 360 | 0.0 | 2.0 | 0.00 | 0.62 | 0.00 | 88 | 1012.2 |
| 20260507040538 | 42 | 360 | 0.0 | 2.0 | 0.00 | 0.68 | 0.62 | 88 | 1012.2 |
| 20260507040009 | 42 | 360 | 0.0 | 2.0 | 0.00 | 0.68 | 0.62 | 88 | 1012.2 |
| 20260507035603 | 42 | 360 | 0.0 | 3.0 | 0.00 | 0.68 | 0.62 | 88 | 1012.1 |
| 20260507035039 | 42 | 360 | 0.0 | 3.0 | 0.00 | 0.68 | 0.62 | 88 | 1012.0 |
| 20260507034531 | 42 | 360 | 1.0 | 4.0 | 0.00 | 0.68 | 0.62 | 88 | 1012.0 |
| 20260507034102 | 42 | 360 | 1.0 | 4.0 | 0.00 | 0.68 | 0.62 | 88 | 1012.0 |
| 20260507033541 | 42 | 360 | 1.0 | 3.0 | 0.00 | 0.68 | 0.62 | 88 | 1012.0 |
| 20260507033022 | 42 | 360 | 0.0 | 2.0 | 0.00 | 0.68 | 0.62 | 89 | 1012.0 |
| 20260507032608 | 42 | 360 | 0.0 | 2.0 | 0.00 | 0.68 | 0.62 | 89 | 1012.1 |
| 20260507032047 | 42 | 360 | 0.0 | 0.0 | 0.00 | 0.68 | 0.62 | 89 | 1012.1 |
| 20260507031528 | 42 | 360 | 0.0 | 0.0 | 0.00 | 0.68 | 0.62 | 89 | 1012.1 |
| 20260507031112 | 42 | 360 | 0.0 | 2.0 | 0.00 | 0.68 | 0.62 | 89 | 1012.1 |
| 20260507030552 | 42 | 360 | 1.0 | 2.0 | 0.00 | 0.75 | 0.62 | 89 | 1012.0 |
| 20260507030033 | 42 | 360 | 0.0 | 4.0 | 0.00 | 0.75 | 0.62 | 88 | 1011.9 |
| 20260507025504 | 42 | 360 | 0.0 | 4.0 | 0.00 | 0.75 | 0.62 | 88 | 1011.9 |
| 20260507025058 | 42 | 360 | 1.0 | 4.0 | 0.00 | 0.75 | 0.62 | 88 | 1011.8 |
| 20260507024540 | 42 | 360 | 0.0 | 3.0 | 0.00 | 0.75 | 0.62 | 88 | 1011.9 |
| 20260507024019 | 42 | 360 | 1.0 | 3.0 | 0.00 | 0.75 | 0.62 | 88 | 1011.9 |
| 20260507023559 | 42 | 360 | 0.0 | 3.0 | 0.00 | 0.75 | 0.62 | 88 | 1011.8 |
| 20260507023041 | 42 | 360 | 1.0 | 5.0 | 0.00 | 0.75 | 0.62 | 88 | 1011.9 |
| 20260507022513 | 42 | 360 | 2.0 | 5.0 | 0.00 | 0.75 | 0.62 | 88 | 1012.0 |
| 20260507022106 | 42 | 360 | 1.0 | 5.0 | 0.00 | 0.75 | 0.62 | 88 | 1011.9 |
| 20260507021545 | 42 | 360 | 1.0 | 5.0 | 0.00 | 0.75 | 0.62 | 89 | 1012.0 |
| 20260507021028 | 43 | 360 | 2.0 | 5.0 | 0.00 | 0.75 | 0.62 | 89 | 1012.0 |
| 20260507020610 | 43 | 360 | 2.0 | 5.0 | 0.00 | 0.75 | 0.62 | 89 | 1012.1 |
| 20260507020048 | 43 | 360 | 1.0 | 5.0 | 0.00 | 0.80 | 0.62 | 89 | 1012.1 |
| 20260507015528 | 43 | 360 | 0.0 | 8.0 | 0.00 | 0.80 | 0.62 | 89 | 1012.1 |
| 20260507015112 | 43 | 360 | 1.0 | 8.0 | 0.00 | 0.80 | 0.62 | 89 | 1012.1 |
| 20260507014602 | 43 | 360 | 1.0 | 5.0 | 0.00 | 0.80 | 0.62 | 88 | 1012.1 |
| 20260507014031 | 43 | 360 | 2.0 | 5.0 | 0.00 | 0.80 | 0.62 | 88 | 1011.9 |
| 20260507013502 | 43 | 360 | 2.0 | 8.0 | 0.00 | 0.80 | 0.62 | 88 | 1011.7 |
| 20260507013054 | 43 | 360 | 2.0 | 8.0 | 0.00 | 0.80 | 0.62 | 88 | 1011.8 |
| 20260507012537 | 43 | 360 | 2.0 | 6.0 | 0.00 | 0.80 | 0.62 | 88 | 1011.8 |
| 20260507012016 | 43 | 360 | 2.0 | 9.0 | 0.00 | 0.80 | 0.62 | 88 | 1011.5 |
| 20260507011604 | 43 | 360 | 3.0 | 9.0 | 0.00 | 0.80 | 0.62 | 88 | 1011.5 |
| 20260507011042 | 43 | 360 | 4.0 | 9.0 | 0.00 | 0.80 | 0.62 | 88 | 1011.5 |
| 20260507010512 | 44 | 360 | 3.0 | 11.0 | 0.00 | 0.84 | 0.62 | 88 | 1011.7 |
| 20260507010112 | 44 | 360 | 3.0 | 12.0 | 0.00 | 0.84 | 0.62 | 89 | 1011.6 |
| 20260507005544 | 44 | 360 | 2.0 | 12.0 | 0.00 | 0.84 | 0.62 | 89 | 1011.6 |
| 20260507005024 | 44 | 360 | 3.0 | 6.0 | 0.00 | 0.84 | 0.62 | 89 | 1011.6 |
| 20260507004617 | 44 | 360 | 1.0 | 6.0 | 0.00 | 0.84 | 0.62 | 89 | 1011.5 |
| 20260507004048 | 44 | 360 | 3.0 | 6.0 | 0.00 | 0.84 | 0.62 | 88 | 1011.2 |
| 20260507003527 | 44 | 360 | 3.0 | 9.0 | 0.00 | 0.84 | 0.62 | 88 | 1011.2 |
| 20260507003110 | 44 | 360 | 2.0 | 9.0 | 0.00 | 0.84 | 0.62 | 89 | 1011.1 |
| 20260507002550 | 45 | 360 | 2.0 | 6.0 | 0.00 | 0.84 | 0.62 | 88 | 1011.0 |
| 20260507002031 | 45 | 360 | 2.0 | 6.0 | 0.00 | 0.84 | 0.62 | 88 | 1010.9 |
| 20260507001511 | 45 | 360 | 2.0 | 6.0 | 0.00 | 0.84 | 0.62 | 88 | 1010.7 |
| 20260507001054 | 45 | 360 | 2.0 | 6.0 | 0.00 | 0.84 | 0.62 | 88 | 1010.7 |
| 20260507000533 | 45 | 360 | 1.0 | 5.0 | 0.00 | 0.99 | 0.62 | 88 | 1010.7 |
| 20260507000007 | 45 | 360 | 2.0 | 9.0 | 0.00 | 0.99 | 0.62 | 88 | 1010.8 |
| 20260506235559 | 45 | 360 | 2.0 | 9.0 | 0.00 | 0.99 | 0.62 | 88 | 1010.6 |
| 20260506235036 | 46 | 360 | 1.0 | 6.0 | 0.00 | 0.99 | 0.62 | 88 | 1010.5 |
| 20260506234517 | 46 | 360 | 2.0 | 6.0 | 0.00 | 0.99 | 0.62 | 87 | 1010.5 |
| 20260506234102 | 46 | 360 | 1.0 | 6.0 | 0.00 | 0.99 | 0.62 | 87 | 1010.6 |
| 20260506233542 | 46 | 360 | 2.0 | 9.0 | 0.00 | 0.99 | 0.62 | 86 | 1010.5 |
| 20260506233022 | 47 | 360 | 2.0 | 10.0 | 0.00 | 0.99 | 0.62 | 86 | 1010.5 |
| 20260506232605 | 47 | 360 | 3.0 | 11.0 | 0.00 | 0.99 | 0.62 | 85 | 1010.3 |
| 20260506232044 | 47 | 360 | 3.0 | 11.0 | 0.00 | 0.99 | 0.62 | 84 | 1010.2 |
| 20260506231514 | 48 | 360 | 3.0 | 14.0 | 0.00 | 0.99 | 0.62 | 83 | 1010.2 |
| 20260506231105 | 48 | 80 | 1.0 | 12.0 | 0.00 | 0.99 | 0.62 | 83 | 1010.2 |
| 20260506230543 | 48 | 9 | 2.0 | 9.0 | 0.00 | 1.13 | 0.62 | 82 | 1010.0 |
| 20260506230024 | 48 | 77 | 3.0 | 12.0 | 0.00 | 1.13 | 0.62 | 82 | 1009.9 |
| 20260506225607 | 48 | 95 | 2.0 | 12.0 | 0.00 | 1.13 | 0.62 | 83 | 1009.8 |
| 20260506225048 | 48 | 66 | 2.0 | 5.0 | 0.00 | 1.13 | 0.62 | 86 | 1009.7 |
| 20260506224529 | 48 | 189 | 1.0 | 7.0 | 0.00 | 1.13 | 0.62 | 89 | 1009.6 |
| 20260506224111 | 48 | 290 | 2.0 | 7.0 | 0.00 | 1.13 | 0.62 | 90 | 1009.6 |
| 20260506223555 | 48 | 246 | 0.0 | 3.0 | 0.00 | 1.13 | 0.62 | 90 | 1009.4 |
| 20260506223034 | 48 | 231 | 1.0 | 3.0 | 0.00 | 1.13 | 0.62 | 89 | 1009.3 |
| 20260506222515 | 48 | 179 | 1.0 | 3.0 | 0.00 | 1.13 | 0.62 | 89 | 1009.2 |
| 20260506222059 | 48 | 179 | 1.0 | 2.0 | 0.00 | 1.13 | 0.62 | 89 | 1009.0 |
| 20260506221538 | 48 | 177 | 0.0 | 3.0 | 0.00 | 1.13 | 0.62 | 89 | 1009.1 |
| 20260506221008 | 48 | 178 | 0.0 | 3.0 | 0.00 | 1.13 | 0.62 | 89 | 1009.1 |
| 20260506220601 | 48 | 151 | 0.0 | 3.0 | 0.00 | 1.13 | 0.62 | 89 | 1009.1 |
| 20260506220046 | 48 | 150 | 0.0 | 3.0 | 0.00 | 1.13 | 0.62 | 88 | 1009.2 |
| 20260506215519 | 48 | 150 | 0.0 | 3.0 | 0.00 | 1.13 | 0.62 | 88 | 1009.1 |
| 20260506215101 | 48 | 148 | 0.0 | 2.0 | 0.00 | 1.13 | 0.62 | 88 | 1009.0 |
| 20260506214550 | 48 | 149 | 0.0 | 3.0 | 0.00 | 1.13 | 0.62 | 88 | 1009.0 |
| 20260506214023 | 48 | 149 | 1.0 | 3.0 | 0.00 | 1.13 | 0.62 | 88 | 1009.0 |
| 20260506213603 | 48 | 124 | 0.0 | 2.0 | 0.00 | 1.13 | 0.62 | 89 | 1008.9 |
| 20260506213044 | 48 | 124 | 0.0 | 2.0 | 0.00 | 1.13 | 0.62 | 88 | 1008.9 |
| 20260506212525 | 48 | 124 | 0.0 | 2.0 | 0.00 | 1.13 | 0.62 | 89 | 1008.9 |
| 20260506212108 | 48 | 124 | 0.0 | 0.0 | 0.00 | 1.13 | 0.62 | 89 | 1008.9 |
| 20260506211546 | 48 | 125 | 0.0 | 0.0 | 0.00 | 1.13 | 0.62 | 88 | 1008.9 |
| 20260506211029 | 48 | 125 | 0.0 | 0.0 | 0.00 | 1.13 | 0.62 | 88 | 1009.1 |
| 20260506210610 | 48 | 123 | 0.0 | 0.0 | 0.00 | 1.13 | 0.62 | 88 | 1009.0 |
| 20260506210051 | 48 | 116 | 0.0 | 0.0 | 0.00 | 1.13 | 0.62 | 88 | 1009.0 |
| 20260506205531 | 48 | 360 | 0.0 | 0.0 | 0.00 | 1.13 | 0.62 | 89 | 1008.8 |
| 20260506205004 | 48 | 360 | 0.0 | 0.0 | 0.00 | 1.13 | 0.62 | 88 | 1008.9 |
| 20260506204555 | 47 | 360 | 0.0 | 0.0 | 0.00 | 1.13 | 0.62 | 88 | 1009.0 |
| 20260506204035 | 47 | 360 | 0.0 | 0.0 | 0.00 | 1.13 | 0.62 | 89 | 1009.0 |
| 20260506203516 | 47 | 105 | 0.0 | 0.0 | 0.00 | 1.13 | 0.62 | 89 | 1009.0 |
| 20260506203059 | 47 | 103 | 0.0 | 0.0 | 0.00 | 1.13 | 0.62 | 89 | 1009.0 |
| 20260506202538 | 47 | 103 | 0.0 | 0.0 | 0.00 | 1.13 | 0.62 | 89 | 1009.0 |
| 20260506202014 | 47 | 103 | 0.0 | 0.0 | 0.00 | 1.13 | 0.62 | 90 | 1009.0 |
| 20260506201605 | 47 | 103 | 0.0 | 1.0 | 0.00 | 1.13 | 0.62 | 90 | 1009.1 |
| 20260506201042 | 47 | 103 | 0.0 | 2.0 | 0.00 | 1.13 | 0.62 | 91 | 1009.1 |
| 20260506200522 | 46 | 103 | 1.0 | 2.0 | 0.00 | 1.13 | 0.62 | 91 | 1009.2 |
| 20260506200108 | 46 | 104 | 0.0 | 1.0 | 0.00 | 1.13 | 0.62 | 91 | 1009.1 |
| 20260506195544 | 46 | 105 | 0.0 | 2.0 | 0.00 | 1.13 | 0.62 | 92 | 1009.1 |
| 20260506195026 | 46 | 104 | 0.0 | 2.0 | 0.00 | 1.13 | 0.62 | 92 | 1009.1 |
| 20260506194609 | 46 | 360 | 0.0 | 3.0 | 0.00 | 1.13 | 0.62 | 92 | 1009.1 |
| 20260506194049 | 46 | 103 | 0.0 | 2.0 | 0.00 | 1.13 | 0.62 | 93 | 1009.2 |
| 20260506193528 | 46 | 103 | 0.0 | 2.0 | 0.00 | 1.13 | 0.62 | 93 | 1009.1 |
| 20260506193114 | 46 | 103 | 0.0 | 2.0 | 0.00 | 1.13 | 0.62 | 93 | 1009.1 |
| 20260506192553 | 46 | 103 | 0.0 | 4.0 | 0.00 | 1.13 | 0.62 | 93 | 1008.9 |
| 20260506192035 | 46 | 103 | 1.0 | 4.0 | 0.00 | 1.13 | 0.62 | 94 | 1008.9 |
| 20260506191507 | 45 | 80 | 0.0 | 3.0 | 0.00 | 1.13 | 0.62 | 94 | 1008.8 |
| 20260506191103 | 45 | 81 | 1.0 | 3.0 | 0.00 | 1.13 | 0.62 | 94 | 1008.9 |
| 20260506190540 | 45 | 81 | 0.0 | 3.0 | 0.00 | 1.13 | 0.62 | 94 | 1008.9 |
| 20260506190025 | 45 | 81 | 0.0 | 2.0 | 0.00 | 1.13 | 0.62 | 94 | 1009.0 |
| 20260506185604 | 45 | 81 | 0.0 | 2.0 | 0.00 | 1.13 | 0.62 | 95 | 1009.0 |
| 20260506185045 | 45 | 85 | 0.0 | 3.0 | 0.00 | 1.13 | 0.62 | 94 | 1009.0 |
| 20260506184526 | 45 | 90 | 1.0 | 3.0 | 0.00 | 1.13 | 0.62 | 94 | 1009.0 |
| 20260506184108 | 45 | 360 | 1.0 | 2.0 | 0.00 | 1.13 | 0.62 | 94 | 1009.0 |
| 20260506183549 | 45 | 88 | 0.0 | 3.0 | 0.00 | 1.13 | 0.62 | 94 | 1009.1 |
| 20260506183030 | 45 | 115 | 0.0 | 2.0 | 0.00 | 1.13 | 0.62 | 94 | 1009.2 |
| 20260506182612 | 45 | 117 | 0.0 | 2.0 | 0.00 | 1.13 | 0.62 | 95 | 1009.0 |
| 20260506182051 | 45 | 360 | 0.0 | 3.0 | 0.00 | 1.13 | 0.62 | 95 | 1009.0 |
| 20260506181533 | 45 | 360 | 0.0 | 3.0 | 0.00 | 1.13 | 0.62 | 95 | 1009.0 |
| 20260506181006 | 44 | 360 | 0.0 | 3.0 | 0.00 | 1.13 | 0.62 | 95 | 1009.0 |
| 20260506180557 | 44 | 360 | 0.0 | 3.0 | 0.00 | 1.13 | 0.62 | 95 | 1009.1 |
| 20260506180041 | 44 | 360 | 1.0 | 4.0 | 0.00 | 1.13 | 0.62 | 94 | 1009.0 |
| 20260506175518 | 44 | 360 | 0.0 | 3.0 | 0.00 | 1.13 | 0.62 | 94 | 1009.0 |
| 20260506175105 | 44 | 360 | 1.0 | 3.0 | 0.00 | 1.13 | 0.62 | 95 | 1008.9 |
| 20260506174539 | 44 | 360 | 0.0 | 2.0 | 0.00 | 1.13 | 0.62 | 94 | 1008.9 |
| 20260506174021 | 44 | 360 | 1.0 | 3.0 | 0.00 | 1.13 | 0.62 | 94 | 1009.1 |
| 20260506173602 | 44 | 360 | 1.0 | 3.0 | 0.00 | 1.13 | 0.62 | 94 | 1009.0 |
| 20260506173059 | 44 | 360 | 2.0 | 3.0 | 0.00 | 1.13 | 0.62 | 94 | 1008.8 |
| 20260506172525 | 44 | 360 | 0.0 | 0.0 | 0.00 | 1.13 | 0.62 | 95 | 1008.7 |
| 20260506172108 | 44 | 360 | 0.0 | 0.0 | 0.00 | 1.13 | 0.62 | 95 | 1008.6 |
| 20260506171549 | 44 | 360 | 0.0 | 2.0 | 0.00 | 1.13 | 0.62 | 95 | 1008.5 |
| 20260506171028 | 44 | 360 | 0.0 | 2.0 | 0.00 | 1.13 | 0.62 | 95 | 1008.5 |
| 20260506170611 | 44 | 360 | 0.0 | 3.0 | 0.00 | 1.13 | 0.62 | 95 | 1008.5 |
| 20260506170051 | 44 | 360 | 0.0 | 3.0 | 0.00 | 1.13 | 0.62 | 95 | 1008.2 |
| 20260506165532 | 44 | 360 | 1.0 | 3.0 | 0.00 | 1.13 | 0.62 | 95 | 1008.2 |
| 20260506165013 | 44 | 360 | 0.0 | 5.0 | 0.00 | 1.13 | 0.62 | 95 | 1008.2 |
| 20260506164557 | 44 | 360 | 0.0 | 5.0 | 0.00 | 1.13 | 0.62 | 95 | 1008.2 |
| 20260506164037 | 44 | 360 | 0.0 | 2.0 | 0.01 | 1.13 | 0.62 | 95 | 1008.3 |
| 20260506163510 | 44 | 360 | 0.0 | 3.0 | 0.01 | 1.13 | 0.62 | 95 | 1008.4 |
| 20260506163105 | 44 | 360 | 0.0 | 3.0 | 0.01 | 1.13 | 0.62 | 95 | 1008.4 |
| 20260506162540 | 44 | 360 | 0.0 | 3.0 | 0.01 | 1.13 | 0.62 | 95 | 1008.3 |
| 20260506162022 | 44 | 360 | 0.0 | 3.0 | 0.01 | 1.13 | 0.62 | 95 | 1008.3 |
| 20260506161601 | 44 | 360 | 0.0 | 3.0 | 0.01 | 1.13 | 0.62 | 96 | 1008.3 |
| 20260506161041 | 44 | 360 | 0.0 | 0.0 | 0.01 | 1.13 | 0.62 | 96 | 1008.2 |
| 20260506160522 | 44 | 360 | 0.0 | 0.0 | 0.01 | 1.13 | 0.62 | 96 | 1008.2 |
| 20260506160108 | 44 | 360 | 0.0 | 0.0 | 0.01 | 1.13 | 0.62 | 95 | 1008.2 |
| 20260506155548 | 44 | 360 | 0.0 | 0.0 | 0.01 | 1.13 | 0.62 | 96 | 1008.3 |
| 20260506155015 | 44 | 360 | 0.0 | 0.0 | 0.01 | 1.13 | 0.62 | 96 | 1008.2 |
| 20260506154607 | 44 | 360 | 0.0 | 0.0 | 0.01 | 1.13 | 0.62 | 96 | 1008.2 |
| 20260506154049 | 44 | 360 | 0.0 | 0.0 | 0.00 | 1.12 | 0.61 | 96 | 1008.2 |
| 20260506153530 | 44 | 360 | 0.0 | 0.0 | 0.01 | 1.12 | 0.61 | 96 | 1008.2 |
| 20260506153111 | 44 | 360 | 0.0 | 0.0 | 0.01 | 1.12 | 0.61 | 96 | 1008.4 |
| 20260506152552 | 43 | 360 | 0.0 | 0.0 | 0.01 | 1.12 | 0.61 | 96 | 1008.1 |
| 20260506152033 | 43 | 360 | 0.0 | 0.0 | 0.01 | 1.12 | 0.61 | 96 | 1008.1 |
| 20260506151507 | 43 | 360 | 0.0 | 0.0 | 0.01 | 1.12 | 0.61 | 96 | 1008.1 |
| 20260506151057 | 44 | 360 | 0.0 | 1.0 | 0.01 | 1.12 | 0.61 | 96 | 1008.1 |
| 20260506150537 | 43 | 360 | 0.0 | 1.0 | 0.02 | 1.12 | 0.61 | 96 | 1007.9 |
| 20260506150017 | 43 | 360 | 0.0 | 2.0 | 0.02 | 1.12 | 0.61 | 96 | 1008.0 |
| 20260506145600 | 43 | 360 | 0.0 | 2.0 | 0.02 | 1.12 | 0.61 | 96 | 1007.9 |
| 20260506145039 | 43 | 148 | 0.0 | 2.0 | 0.02 | 1.12 | 0.61 | 96 | 1007.9 |
| 20260506144518 | 43 | 149 | 0.0 | 2.0 | 0.02 | 1.12 | 0.61 | 96 | 1007.9 |
| 20260506144104 | 43 | 148 | 0.0 | 2.0 | 0.02 | 1.12 | 0.61 | 95 | 1007.9 |
| 20260506143543 | 43 | 148 | 1.0 | 2.0 | 0.01 | 1.12 | 0.60 | 96 | 1007.8 |
| 20260506143026 | 43 | 148 | 0.0 | 2.0 | 0.01 | 1.12 | 0.60 | 96 | 1008.0 |
| 20260506142605 | 43 | 148 | 0.0 | 2.0 | 0.01 | 1.12 | 0.60 | 96 | 1007.7 |
| 20260506142047 | 43 | 148 | 0.0 | 2.0 | 0.01 | 1.12 | 0.60 | 96 | 1007.5 |
| 20260506141533 | 43 | 148 | 0.0 | 2.0 | 0.02 | 1.12 | 0.60 | 96 | 1007.5 |
| 20260506141109 | 43 | 148 | 1.0 | 2.0 | 0.02 | 1.12 | 0.60 | 96 | 1007.5 |
| 20260506140552 | 43 | 149 | 0.0 | 2.0 | 0.01 | 1.11 | 0.59 | 96 | 1007.5 |
| 20260506140020 | 43 | 149 | 1.0 | 2.0 | 0.01 | 1.11 | 0.59 | 96 | 1007.4 |
| 20260506135610 | 43 | 148 | 1.0 | 2.0 | 0.01 | 1.11 | 0.59 | 96 | 1007.3 |
| 20260506135057 | 43 | 148 | 1.0 | 2.0 | 0.01 | 1.11 | 0.59 | 96 | 1007.4 |
| 20260506134531 | 43 | 148 | 0.0 | 2.0 | 0.01 | 1.11 | 0.59 | 96 | 1007.5 |
| 20260506134002 | 43 | 149 | 0.0 | 2.0 | 0.02 | 1.11 | 0.59 | 96 | 1007.5 |
| 20260506133555 | 42 | 149 | 0.0 | 2.0 | 0.02 | 1.11 | 0.59 | 96 | 1007.5 |
| 20260506133041 | 42 | 149 | 0.0 | 2.0 | 0.02 | 1.11 | 0.59 | 96 | 1007.5 |
| 20260506132506 | 42 | 149 | 1.0 | 2.0 | 0.02 | 1.11 | 0.59 | 96 | 1007.5 |
| 20260506132059 | 42 | 149 | 0.0 | 2.0 | 0.02 | 1.11 | 0.59 | 96 | 1007.6 |
| 20260506131539 | 42 | 149 | 0.0 | 2.0 | 0.01 | 1.10 | 0.57 | 96 | 1007.5 |
| 20260506131021 | 43 | 148 | 0.0 | 3.0 | 0.01 | 1.10 | 0.57 | 96 | 1007.5 |
| 20260506130602 | 43 | 148 | 1.0 | 3.0 | 0.02 | 1.10 | 0.57 | 96 | 1007.1 |
| 20260506130042 | 43 | 171 | 0.0 | 3.0 | 0.02 | 1.10 | 0.57 | 96 | 1007.3 |
| 20260506125513 | 43 | 171 | 0.0 | 3.0 | 0.02 | 1.10 | 0.57 | 96 | 1007.1 |
| 20260506125106 | 43 | 171 | 1.0 | 3.0 | 0.02 | 1.10 | 0.57 | 96 | 1007.1 |
| 20260506124546 | 43 | 171 | 1.0 | 4.0 | 0.03 | 1.10 | 0.57 | 96 | 1007.2 |
| 20260506124024 | 43 | 171 | 1.0 | 4.0 | 0.02 | 1.09 | 0.56 | 96 | 1007.1 |
| 20260506123605 | 43 | 171 | 1.0 | 3.0 | 0.02 | 1.09 | 0.56 | 96 | 1007.2 |
| 20260506123047 | 43 | 171 | 0.0 | 2.0 | 0.02 | 1.09 | 0.56 | 96 | 1007.3 |
| 20260506122521 | 43 | 172 | 0.0 | 2.0 | 0.02 | 1.09 | 0.56 | 96 | 1007.3 |
| 20260506122109 | 42 | 172 | 0.0 | 2.0 | 0.02 | 1.09 | 0.56 | 96 | 1007.3 |
| 20260506121551 | 42 | 127 | 0.0 | 2.0 | 0.03 | 1.09 | 0.56 | 96 | 1007.4 |
| 20260506121033 | 42 | 127 | 0.0 | 4.0 | 0.03 | 1.09 | 0.56 | 95 | 1007.5 |
| 20260506120504 | 42 | 127 | 1.0 | 4.0 | 0.02 | 1.08 | 0.56 | 95 | 1007.4 |
| 20260506120056 | 42 | 124 | 1.0 | 3.0 | 0.02 | 1.08 | 0.56 | 95 | 1007.6 |
| 20260506115539 | 42 | 118 | 1.0 | 3.0 | 0.02 | 1.08 | 0.56 | 95 | 1007.6 |
| 20260506115008 | 42 | 118 | 1.0 | 4.0 | 0.01 | 1.07 | 0.55 | 95 | 1007.5 |
| 20260506114559 | 42 | 118 | 0.0 | 4.0 | 0.01 | 1.07 | 0.55 | 95 | 1007.6 |
| 20260506114039 | 42 | 118 | 1.0 | 4.0 | 0.01 | 1.07 | 0.55 | 95 | 1007.4 |
| 20260506113520 | 42 | 118 | 2.0 | 4.0 | 0.02 | 1.07 | 0.55 | 95 | 1007.3 |
| 20260506113102 | 42 | 132 | 1.0 | 4.0 | 0.02 | 1.07 | 0.55 | 95 | 1007.2 |
| 20260506112544 | 42 | 134 | 0.0 | 3.0 | 0.02 | 1.07 | 0.55 | 95 | 1007.5 |
| 20260506112015 | 42 | 134 | 1.0 | 3.0 | 0.02 | 1.06 | 0.54 | 96 | 1006.9 |
| 20260506111608 | 42 | 128 | 0.0 | 2.0 | 0.02 | 1.06 | 0.54 | 96 | 1006.7 |
| 20260506111051 | 42 | 128 | 1.0 | 3.0 | 0.03 | 1.06 | 0.54 | 96 | 1006.9 |
| 20260506110529 | 42 | 125 | 1.0 | 3.0 | 0.03 | 1.06 | 0.54 | 95 | 1006.8 |
| 20260506110114 | 42 | 121 | 1.0 | 4.0 | 0.03 | 1.06 | 0.54 | 95 | 1006.6 |
| 20260506105552 | 42 | 125 | 1.0 | 4.0 | 0.04 | 1.06 | 0.54 | 95 | 1006.9 |